カタログに戻る

ARIANE 44L R/B

運用中HEO
NORAD 27604·ROCKET BODY·🇫🇷 France

打ち上げ Dec 17, 2002 から Guiana Space Centre

Loading…

次のパス (今後24時間)

TLE

最新Source: Space-Track

元期: Sep 14, 2026, 09:17 UTC

1 27604U 02057B   26257.38744030  .00002256  00000-0  18292-2 0  9993
2 27604   7.1559 204.5555 7056365 143.1798 296.6408  2.53154212202014

AllMySatでARIANE 44L R/Bをリアルタイム追跡

Download on the App Store